www.pogodaiklimat.ru

Погода и климат >> Архив погоды >> Россия >> Красноярский край >> Бахта


ПОГОДА в Бахте

  • Прогноз погоды в Бахте
  • Монитор погоды в Бахте

АРХИВ ПОГОДЫ в Бахте

Время (UTC), дата Ветер
(напр.,м/с)
 
Видим.   Явления Облачность Т
(С)
Тd
(С)
f
(%)
Тe
(С)
Тes
(С)
Комфортность P
(гПа)
Po
(гПа)
Тmin
(С)
Tmax
(С)
R
(мм)
R24
(мм)
S
(см)
06 14.05 штиль 0 50 км 4/3 600 м
[Cu hum Ci fib]
+7.7 -8.7 30 +8 +19 опасность
простуды
1013.2 1007.2
09 14.05 СЗ 2 50 км 4/3 600 м
[Cu med, cong Ci fib]
+8.3 -8.5 29 +7 +13 1013.3 1007.3
12 14.05 С 2 50 км 3/3 600 м
[Cu hum]
+8.4 -7.7 31 +7 +9 1014.2 1008.2 +8.4
15 14.05 штиль 0 50 км 3/0
[Ci fib]
+5.3 -7.3 40 +5 +5 1015.0 1008.9
18 14.05 штиль 0 н/о ясно +2.3 -5.6 56 +2 +2 1015.4 1009.3
21 14.05 штиль 0 50 км 1/0
[Ci fib]
-2.3 -5.6 78 -3 -3 1015.4 1009.3
00 15.05 штиль 0 50 км 6/0
[Ci sp]
+0.6 -3.7 73 -0 +2 1015.4 1009.2 +0.6 2
03 15.05 штиль 0 50 км 3/0
[Ci fib]
+3.5 -4.6 55 +3 +13 опасность
простуды
1015.1 1009.0
06 15.05 С 2 50 км ясно +5.9 -5.8 43 +4 +16 опасность
простуды
1014.0 1007.9
09 15.05 С 4 50 км 4/3 600 м
[Cu med, cong Ci fib]
+7.3 -5.2 41 +5 +8 1014.0 1008.0
12 15.05 СЗ 2 50 км 8/0
[Ci sp]
+6.0 -6.5 40 +4 +6 1015.0 1008.9 +7.3
15 15.05 СЗ 2 50 км 4/0
[Ci sp]
+3.9 -5.6 50 +2 +2 1016.2 1010.1
18 15.05 СЗ 4 н/о 3/0
[Ci fib]
+1.5 -5.1 61 -3 -3 1016.3 1010.1
21 15.05 СЗ 2 50 км 1/0
[Ci fib]
-0.3 -5.4 68 -4 -4 1016.6 1010.4
00 16.05 штиль 0 50 км 3/0
[Ci fib]
-0.4 -4.4 74 -1 +1 1017.0 1010.8 -0.4
03 16.05 З 2 50 км 6/0 2000 м
[Ac trans]
+2.5 -4.7 59 -0 +5 1017.0 1010.9
06 16.05 СЗ 2 50 км 8/0 2000 м
[Ac trans]
+6.9 -5.4 41 +5 +12 1016.7 1010.6
09 16.05 СЗ 2 50 км 9/9 600 м
[Cb cap]
+8.6 -4.2 40 +7 +8 1016.9 1010.9
12 16.05 штиль 0 50 км 10/10 600 м
[Cb cap]
+7.8 -4.2 42 +8 +8 1017.5 1011.5 +8.6
15 16.05 штиль 0 50 км 8/8 600 м
[Cb cap]
+4.5 -5.1 50 +4 +4 1018.0 1011.9
18 16.05 штиль 0 н/о 8/8 600 м
[Cb cap Ci sp]
+2.2 -4.9 59 +2 +2 1018.3 1012.1
21 16.05 штиль 0 50 км 9/9 600 м
[Cb cap]
+1.8 -3.3 69 +1 +1 1018.2 1012.0
00 17.05 штиль 0 50 км 9/9 600 м
[Cb cap]
+0.5 -2.5 80 -1 -0 1018.5 1012.3 +0.5
03 17.05 штиль 0 50 км 9/6 600 м
[Sc Ac trans]
+3.4 -1.3 71 +3 +5 1018.7 1012.6
06 17.05 штиль 0 50 км 8/6 600 м
[Cu Sc Ac trans]
+7.9 -4.6 41 +8 +12 1018.1 1012.1
09 17.05 штиль 0 50 км 8/6 600 м
[Cb cap Ci sp]
+9.2 -3.6 40 +9 +13 1017.8 1011.8
12 17.05 штиль 0 50 км 8/8 600 м
[Cu med, cong]
+9.0 -3.2 42 +9 +9 1017.8 1011.8 +9.2
15 17.05 штиль 0 50 км 8/8 600 м
[Sc]
+5.2 -3.7 53 +5 +5 1018.0 1011.9
18 17.05 штиль 0 н/о 6/6 600 м
[Sc]
+2.4 -2.5 70 +2 +2 1018.3 1012.2
21 17.05 штиль 0 50 км 6/0 600 м
[Ci sp]
-0.7 -2.3 89 -2 -2 1017.8 1011.6
00 18.05 штиль 0 50 км 8/0
[Ci sp]
+2.4 -1.2 77 +2 +4 1017.6 1011.5 -0.7
03 18.05 штиль 0 50 км 1/1 600 м
[Cu hum]
+6.8 -0.5 60 +6 +16 опасность
простуды
1016.5 1010.4
06 18.05 Ю 4 50 км 8/8 600 м
[Cb cap]
+8.9 -4.1 40 +7 +8 1014.1 1008.1
09 18.05 Ю 4 50 км 10/8 600 м
[Cb cap As trans]
+6.8 -5.6 41 +4 +4 1012.8 1006.7
12 18.05 Ю 4 20 км слаб. ливневой дождь 10/10 600 м
[Cb cap]
+5.0 +1.7 79 +1 +1 1012.9 1006.8 +8.9 0.0
15 18.05 В 2 50 км в посл. час ливневой дождь 10/10 600 м
[Cb cap]
+8.1 +0.9 60 +7 +7 1011.4 1005.4
18 18.05 ЮВ 4 н/о {ливн. осадки} 10/10 600 м
[Cb cap]
+8.0 -0.5 55 +5 +5 1009.4 1003.5
21 18.05 Ю 2 20 км слаб. ливневой дождь 10/10 600 м
[Cb cap]
+5.9 +0.5 68 +4 +4 1008.1 1002.0
00 19.05 ЮВ 2 50 км {ливн. осадки} 10/10 600 м
[Cb cap]
+6.7 +1.8 71 +5 +5 1006.6 1000.5 +5.0 0.7
03 19.05 ЮВ 2 50 км 10/10 600 м
[Cb cap]
+9.2 +2.1 61 +8 +8 1005.0 999.1
06 19.05 ЮВ 4 50 км 10/10 600 м
[Cb cap]
+11.0 +2.4 55 +9 +9 1003.2 997.3
09 19.05 ЮВ 6 20 км слаб. ливневой дождь 10/10 600 м
[Cb cap]
+12.0 +0.8 46 +10 +10 1002.4 996.6
12 19.05 ЮВ 4 50 км {ливн. осадки} 10/10 600 м
[Cb cap]
+13.5 +3.5 51 +12 +12 1000.3 994.5 +13.5 0.3
15 19.05 Ю 2 50 км 10/0 2000 м
[As trans]
+8.9 +3.6 69 +7 +7 999.5 993.6
18 19.05 н/о {ливн. осадки} н/о +5.3 +3.9 91 +4 +4 999.8 993.8
21 19.05 50 км н/о +4.8 +3.4 91 +4 +4 1000.6 994.6
00 20.05 штиль 0 50 км 3/3 600 м
[Sc]
+4.5 +1.5 81 +4 +6 1002.1 996.0 +4.5 0.4
03 20.05 штиль 0 50 км 3/3 600 м
[Cu hum]
+8.8 +0.9 58 +8 +16 1002.2 996.3
06 20.05 штиль 0 50 км 6/6 600 м
[Cu med, cong]
+12.2 +0.4 44 +12 +19 1001.8 996.0
09 20.05 Ю 2 50 км 8/5 600 м
[Cu Sc Ci sp]
+12.0 -0.9 41 +11 +15 1000.9 995.1
12 20.05 штиль 0 50 км 10/4 600 м
[Sc As trans]
+11.6 -0.8 42 +12 +12 999.9 994.0 +12.2
15 20.05 штиль 0 50 км 10/10 600 м
[Cb cap]
+10.1 -0.7 47 +10 +10 997.6 991.7
18 20.05 штиль 0 н/о {ливн. осадки} 6/6 600 м
[Cb cap]
+5.0 +4.1 94 +4 +4 997.6 991.6
21 20.05 штиль 0 50 км {ливн. осадки} 8/8 600 м
[Cb cap]
+3.5 +3.3 99 +2 +2 996.7 990.7
00 21.05 штиль 0 500 м туман ?/? +2.9 +2.9 100 +2 +2 996.1 990.1 +2.9 3

 

Местоположение метеостанции Бахта (Красноярский край, Россия): широта 62.47 долгота 89.00 высота над уровнем моря 57 м.

В архиве по умолчанию представлена погода в Бахте за последнюю неделю. Архивные данные за месяц целиком и за предыдущие месяцы, начиная с января 2011 года, Вы можете получить, выбрав интересующий диапазон дат из раскрывающегося списка и нажав кнопку "Ввод!".


*Определитесь, кто Вы:
робот инопланетянин человек

Внимание! Время в таблицах - всемирное. Для получения местного времени необходимо прибавить поправку, которая равна 7 ч.

Смотрите также архив погоды в соседних городах и на ближайших метеорологических станциях:

Погода в Верхнеимбатске (Красноярский край, Россия) (93 км)
Погода в Бору (Красноярский край, Россия) (110 км)
Погода в Келлоге (Красноярский край, Россия) (140 км)
Погода в Кузьмовке (Эвенкия, Россия) (162 км)
Погода в Ворогово (Красноярский край, Россия) (164 км)
Погода в Верещагино (Красноярский край, Россия) (210 км)
Погода в Сыме (Красноярский край, Россия) (238 км)
Погода в Ярцево (Красноярский край, Россия) (252 км)
Погода в Вельмо (Красноярский край, Россия) (283 км)
Погода в Тутончанах (Эвенкия, Россия) (306 км)

Пояснения к столбцам:

Ветер - указаны скорость ветра в м/с - средняя за 10 мин, порывы в срок и между сроками (в фигурных скобках) и направление, откуда дует ветер: С - северный, СВ - северо-восточный, В - восточный, ЮВ - юго-восточный, Ю - южный, ЮЗ - юго-западный, З - западный, СЗ - северо-западный.
Видимость - горизонтальная дальность видимости в метрах или километрах. При видимости от 1 до 10 км при отсутствии осадков обычно наблюдается дымка, при ухудшении видимости до 1 км и менее - туман. В сухую погоду видимость может ухудшаться дымом, пылью или мглою.
Явления - указаны атмосферные явления, наблюдавшиеся в срок или в последний час перед сроком; фигурными скобками обозначены явления, наблюдавшиеся между сроками (за 1-3 часа до срока); квадратными скобками обозначены град или гололедные отложения с указанием их диаметра в мм.
Облачность - указаны через наклонную черту общая и нижняя облачность в баллах и высота нижней границы облаков в метрах; квадратными скобками обозначены формы облаков: Ci - перистые, Cs - перисто-слоистые, Cc - перисто-кучевые, Ac - высококучевые, As - высокослоистые, Sc - слоисто-кучевые, Ns - слоисто-дождевые, Cu - кучевые, Cb - кучево-дождевые. Подробнее классификацию облаков см. в Атласе облаков (PDF).
T - Температура воздуха - температура, измеренная на высоте 2 м над землей.
Td - Температура точки росы - температура, при понижении до которой содержащийся в воздухе водяной пар достигнет насыщения.
f - Относительная влажность воздуха - влажноcть воздуха, измеренная на высоте 2 м над землей.
Te - Эффективная температура - температура, которую ощущает одетый по сезону человек в тени. Характеристика душности погоды. При расчете учитывается влияние влажности воздуха и скорости ветра на теплоощущения человека.
Tes - Эффективная температура на солнце - температура, которую ощущает человек, с поправкой на солнечный нагрев. Характеристика знойности погоды. Зависит от высоты солнца над горизонтом, облачности и скорости ветра. Ночью, в пасмурную погоду, а также при ветре 12 м/с и более поправка равна нулю.
P - Атмосферное давление - приведенное к уровню моря атмосферное давление.
Po - Атмосферное давление - измеренное на уровне метеостанции атмосферное давление.
Tmin - Минимальная температура - минимум температуры воздуха на высоте 2 м над землей.
Tmax - Максимальная температура - максимум температуры воздуха на высоте 2 м над землей.
R - Количество осадков - Количество выпавших осадков за период времени, мм. При наведении курсора мыши на число - период времени, за который выпало указанное количество осадков.
R24 - Количество осадков - Количество выпавших осадков за 24 часа, мм.
S - Снежный покров - Высота снежного покрова, см. При наведении курсора мыши на число - состояние снежного покрова и степень покрытия местности в баллах.